Time,TemperatureF,DewpointF,PressureIn,WindDirection,WindDirectionDegrees,WindSpeedMPH,WindSpeedGustMPH,Humidity,HourlyPrecipIn,Conditions,Clouds,dailyrainin,SolarRadiationWatts/m^2,SoftwareType,DateUTC
2013-01-21 00:01:00,69.2,66.8,30.00,South,184,0.0,0.0,92,0.00,,-RA,0.00,0.00,VWS V14.00,2013-01-21 05:01:00,
2013-01-21 00:02:00,69.2,66.8,30.00,South,184,0.0,0.0,92,0.00,,-RA,0.00,0.00,VWS V14.00,2013-01-21 05:02:00,
2013-01-21 00:03:00,69.2,66.8,30.00,South,184,0.0,2.0,92,0.00,,-RA,0.00,0.00,VWS V14.00,2013-01-21 05:03:00,
2013-01-21 00:08:00,69.1,66.4,30.00,South,184,0.0,0.0,91,0.00,,-RA,0.00,0.00,VWS V14.00,2013-01-21 05:08:00,
2013-01-21 00:13:00,69.0,66.3,30.00,South,184,0.0,0.0,91,0.00,,-RA,0.00,0.00,VWS V14.00,2013-01-21 05:13:00,
2013-01-21 00:18:00,69.0,66.3,30.00,South,184,0.0,0.0,91,0.00,,-RA,0.00,0.00,VWS V14.00,2013-01-21 05:18:00,
2013-01-21 00:23:00,69.0,66.3,30.00,South,184,0.0,0.0,91,0.00,,-RA,0.00,0.00,VWS V14.00,2013-01-21 05:23:00,
2013-01-21 00:28:00,68.9,66.2,30.00,South,184,0.0,1.0,91,0.00,,-RA,0.00,0.00,VWS V14.00,2013-01-21 05:28:00,
2013-01-21 00:33:00,69.0,66.3,30.00,South,184,0.0,0.0,91,0.00,,-RA,0.00,0.00,VWS V14.00,2013-01-21 05:33:00,
2013-01-21 00:38:00,69.0,66.3,30.00,South,184,0.0,0.0,91,0.00,,-RA,0.00,0.00,VWS V14.00,2013-01-21 05:38:00,
2013-01-21 00:43:00,69.0,66.3,30.00,South,184,0.0,0.0,91,0.00,,-RA,0.00,0.00,VWS V14.00,2013-01-21 05:43:00,
2013-01-21 00:48:00,69.1,66.7,30.00,South,184,0.0,1.0,92,0.00,,-RA,0.00,0.00,VWS V14.00,2013-01-21 05:48:00,
2013-01-21 00:53:00,69.2,66.8,30.00,South,184,0.0,0.0,92,0.00,,-RA,0.00,0.00,VWS V14.00,2013-01-21 05:53:00,
2013-01-21 00:58:00,69.2,66.8,30.00,South,184,0.0,0.0,92,0.00,,-RA,0.00,0.00,VWS V14.00,2013-01-21 05:58:00,
2013-01-21 01:03:00,69.2,66.8,29.99,South,184,0.0,0.0,92,0.00,,-RA,0.00,0.00,VWS V14.00,2013-01-21 06:03:00,
2013-01-21 01:08:00,69.0,66.6,29.99,South,184,0.0,0.0,92,0.00,,-RA,0.00,0.00,VWS V14.00,2013-01-21 06:08:00,
2013-01-21 01:13:00,69.0,66.6,29.99,South,184,0.0,0.0,92,0.00,,-RA,0.00,0.00,VWS V14.00,2013-01-21 06:13:00,
2013-01-21 01:18:00,69.0,66.6,29.99,South,184,0.0,0.0,92,0.00,,-RA,0.00,0.00,VWS V14.00,2013-01-21 06:18:00,
2013-01-21 01:23:00,69.0,66.6,29.99,South,184,0.0,0.0,92,0.00,,-RA,0.00,0.00,VWS V14.00,2013-01-21 06:23:00,
2013-01-21 01:28:00,68.9,66.5,30.00,South,184,0.0,0.0,92,0.00,,-RA,0.00,0.00,VWS V14.00,2013-01-21 06:28:00,
2013-01-21 01:33:00,68.8,66.4,30.00,South,184,0.0,0.0,92,0.00,,-RA,0.00,0.00,VWS V14.00,2013-01-21 06:33:00,
2013-01-21 01:38:00,68.7,66.3,30.00,South,184,0.0,0.0,92,0.00,,-RA,0.00,0.00,VWS V14.00,2013-01-21 06:38:00,
2013-01-21 01:43:00,68.7,66.3,30.00,South,184,0.0,0.0,92,0.00,,-RA,0.00,0.00,VWS V14.00,2013-01-21 06:43:00,
2013-01-21 01:48:00,68.6,66.2,29.99,South,184,0.0,0.0,92,0.00,,-RA,0.00,0.00,VWS V14.00,2013-01-21 06:48:00,
2013-01-21 01:53:00,68.6,66.2,29.99,South,184,1.0,1.0,92,0.00,,-RA,0.00,0.00,VWS V14.00,2013-01-21 06:53:00,
2013-01-21 01:58:00,68.5,66.1,29.99,South,184,0.0,0.0,92,0.00,,-RA,0.00,0.00,VWS V14.00,2013-01-21 06:58:00,
2013-01-21 02:03:00,68.5,66.1,29.99,South,184,0.0,0.0,92,0.00,,-RA,0.00,0.00,VWS V14.00,2013-01-21 07:03:00,
2013-01-21 02:08:00,68.5,66.1,29.99,South,184,0.0,0.0,92,0.00,,-RA,0.00,0.00,VWS V14.00,2013-01-21 07:08:00,
2013-01-21 02:13:00,68.5,66.1,29.99,South,184,0.0,0.0,92,0.00,,-RA,0.00,0.00,VWS V14.00,2013-01-21 07:13:00,
2013-01-21 02:18:00,68.5,66.1,29.99,South,184,0.0,0.0,92,0.00,,-RA,0.00,0.00,VWS V14.00,2013-01-21 07:18:00,
2013-01-21 02:23:00,68.4,66.0,29.98,South,184,0.0,0.0,92,0.00,,-RA,0.00,0.00,VWS V14.00,2013-01-21 07:23:00,
2013-01-21 02:28:00,68.4,66.0,29.98,South,184,0.0,0.0,92,0.00,,-RA,0.00,0.00,VWS V14.00,2013-01-21 07:28:00,
2013-01-21 02:33:00,68.3,65.9,29.98,South,184,0.0,0.0,92,0.00,,-RA,0.00,0.00,VWS V14.00,2013-01-21 07:33:00,
2013-01-21 02:38:00,68.2,65.8,29.98,South,184,2.0,2.0,92,0.00,,-RA,0.00,0.00,VWS V14.00,2013-01-21 07:38:00,
2013-01-21 02:43:00,68.0,65.6,29.98,South,184,0.0,0.0,92,0.00,,-RA,0.00,0.00,VWS V14.00,2013-01-21 07:43:00,
2013-01-21 02:48:00,67.9,65.5,29.97,South,184,0.0,0.0,92,0.00,,-RA,0.00,0.00,VWS V14.00,2013-01-21 07:48:00,
2013-01-21 02:53:00,67.9,65.5,29.98,South,184,0.0,0.0,92,0.00,,-RA,0.00,0.00,VWS V14.00,2013-01-21 07:53:00,
2013-01-21 02:58:00,67.9,65.5,29.97,South,184,0.0,0.0,92,0.00,,-RA,0.00,0.00,VWS V14.00,2013-01-21 07:58:00,
2013-01-21 03:03:00,67.8,65.4,29.98,South,184,0.0,0.0,92,0.00,,-RA,0.00,0.00,VWS V14.00,2013-01-21 08:03:00,
2013-01-21 03:08:00,67.7,65.3,29.98,South,184,0.0,0.0,92,0.00,,-RA,0.00,0.00,VWS V14.00,2013-01-21 08:08:00,
2013-01-21 03:13:00,67.6,65.2,29.98,South,184,0.0,0.0,92,0.00,,-RA,0.00,0.00,VWS V14.00,2013-01-21 08:13:00,
2013-01-21 03:18:00,67.6,65.2,29.98,South,184,0.0,0.0,92,0.00,,-RA,0.00,0.00,VWS V14.00,2013-01-21 08:18:00,
2013-01-21 03:23:00,67.5,65.1,29.98,South,184,0.0,0.0,92,0.00,,-RA,0.00,0.00,VWS V14.00,2013-01-21 08:23:00,
2013-01-21 03:28:00,67.4,65.0,29.98,South,184,0.0,0.0,92,0.00,,-RA,0.00,0.00,VWS V14.00,2013-01-21 08:28:00,
2013-01-21 03:34:00,67.4,65.0,29.98,South,184,0.0,0.0,92,0.00,,-RA,0.00,0.00,VWS V14.00,2013-01-21 08:34:00,
2013-01-21 03:39:00,67.4,65.0,29.98,South,184,0.0,0.0,92,0.00,,-RA,0.00,0.00,VWS V14.00,2013-01-21 08:39:00,
2013-01-21 03:44:00,67.5,65.1,29.98,South,184,0.0,0.0,92,0.00,,-RA,0.00,0.00,VWS V14.00,2013-01-21 08:44:00,
2013-01-21 03:49:00,67.5,65.1,29.98,South,184,0.0,0.0,92,0.00,,-RA,0.00,0.00,VWS V14.00,2013-01-21 08:49:00,
2013-01-21 03:54:00,67.4,65.0,29.98,South,184,0.0,0.0,92,0.00,,-RA,0.00,0.00,VWS V14.00,2013-01-21 08:54:00,
2013-01-21 03:59:00,67.4,65.0,29.98,South,184,0.0,0.0,92,0.00,,-RA,0.00,0.00,VWS V14.00,2013-01-21 08:59:00,
2013-01-21 04:04:00,67.4,65.0,29.98,South,184,0.0,0.0,92,0.00,,-RA,0.00,0.00,VWS V14.00,2013-01-21 09:04:00,
2013-01-21 04:09:00,67.3,64.9,29.97,South,184,0.0,0.0,92,0.00,,-RA,0.00,0.00,VWS V14.00,2013-01-21 09:09:00,
2013-01-21 04:14:00,67.3,64.9,29.97,South,184,0.0,0.0,92,0.00,,-RA,0.00,0.00,VWS V14.00,2013-01-21 09:14:00,
2013-01-21 04:19:00,67.3,64.9,29.97,South,184,0.0,0.0,92,0.00,,-RA,0.00,0.00,VWS V14.00,2013-01-21 09:19:00,
2013-01-21 04:24:00,67.2,64.8,29.97,South,184,0.0,0.0,92,0.00,,-RA,0.00,0.00,VWS V14.00,2013-01-21 09:24:00,
2013-01-21 04:29:00,67.2,64.8,29.97,South,184,0.0,0.0,92,0.00,,-RA,0.00,0.00,VWS V14.00,2013-01-21 09:29:00,
2013-01-21 04:34:00,67.2,64.8,29.97,South,184,0.0,0.0,92,0.00,,-RA,0.00,0.00,VWS V14.00,2013-01-21 09:34:00,
2013-01-21 04:39:00,67.1,64.7,29.97,South,184,0.0,0.0,92,0.00,,-RA,0.00,0.00,VWS V14.00,2013-01-21 09:39:00,
2013-01-21 04:44:00,67.1,64.7,29.97,South,184,0.0,0.0,92,0.00,,-RA,0.00,0.00,VWS V14.00,2013-01-21 09:44:00,
2013-01-21 04:49:00,67.0,64.6,29.97,South,184,0.0,0.0,92,0.00,,-RA,0.00,0.00,VWS V14.00,2013-01-21 09:49:00,
2013-01-21 04:54:00,66.9,64.5,29.97,South,184,0.0,0.0,92,0.00,,-RA,0.00,0.00,VWS V14.00,2013-01-21 09:54:00,
2013-01-21 04:59:00,66.9,64.5,29.97,South,184,0.0,0.0,92,0.00,,-RA,0.00,0.00,VWS V14.00,2013-01-21 09:59:00,
2013-01-21 05:04:00,66.8,64.4,29.97,South,184,0.0,0.0,92,0.00,,-RA,0.00,0.00,VWS V14.00,2013-01-21 10:04:00,
2013-01-21 05:09:00,66.8,64.4,29.96,South,184,0.0,0.0,92,0.00,,-RA,0.01,0.00,VWS V14.00,2013-01-21 10:09:00,
2013-01-21 05:14:00,66.7,64.3,29.96,South,184,0.0,0.0,92,0.00,,-RA,0.01,0.00,VWS V14.00,2013-01-21 10:14:00,
2013-01-21 05:19:00,66.7,64.3,29.96,South,184,0.0,0.0,92,0.00,,-RA,0.01,0.00,VWS V14.00,2013-01-21 10:19:00,
2013-01-21 05:24:00,66.7,64.3,29.96,South,184,0.0,0.0,92,0.00,,-RA,0.01,0.00,VWS V14.00,2013-01-21 10:24:00,
2013-01-21 05:29:00,66.6,64.2,29.96,South,184,0.0,1.0,92,0.00,,-RA,0.01,0.00,VWS V14.00,2013-01-21 10:29:00,
2013-01-21 05:34:00,66.5,64.1,29.96,South,184,0.0,0.0,92,0.00,,-RA,0.01,0.00,VWS V14.00,2013-01-21 10:34:00,
2013-01-21 05:39:00,66.5,64.1,29.96,South,184,0.0,0.0,92,0.00,,-RA,0.01,0.00,VWS V14.00,2013-01-21 10:39:00,
2013-01-21 05:44:00,66.5,64.1,29.96,South,184,0.0,0.0,92,0.00,,-RA,0.01,0.00,VWS V14.00,2013-01-21 10:44:00,
2013-01-21 05:49:00,66.6,64.2,29.96,South,184,0.0,1.0,92,0.00,,-RA,0.01,0.00,VWS V14.00,2013-01-21 10:49:00,
2013-01-21 05:54:00,66.7,64.3,29.97,South,184,0.0,1.0,92,0.00,,-RA,0.01,0.00,VWS V14.00,2013-01-21 10:54:00,
2013-01-21 05:59:00,66.7,64.3,29.97,South,184,0.0,0.0,92,0.00,,-RA,0.01,0.00,VWS V14.00,2013-01-21 10:59:00,
2013-01-21 06:04:00,66.6,64.2,29.97,South,184,0.0,0.0,92,0.00,,-RA,0.01,0.00,VWS V14.00,2013-01-21 11:04:00,
2013-01-21 06:09:00,66.6,64.2,29.98,South,184,0.0,0.0,92,0.00,,-RA,0.01,0.00,VWS V14.00,2013-01-21 11:09:00,
2013-01-21 06:14:00,66.5,64.1,29.97,South,184,0.0,0.0,92,0.00,,-RA,0.01,0.00,VWS V14.00,2013-01-21 11:14:00,
2013-01-21 06:19:00,66.5,64.1,29.97,South,184,0.0,0.0,92,0.00,,-RA,0.01,0.00,VWS V14.00,2013-01-21 11:19:00,
2013-01-21 06:24:00,66.5,64.1,29.97,South,184,0.0,0.0,92,0.00,,-RA,0.01,0.00,VWS V14.00,2013-01-21 11:24:00,
2013-01-21 06:29:00,66.6,64.2,29.97,South,184,0.0,0.0,92,0.00,,-RA,0.01,0.00,VWS V14.00,2013-01-21 11:29:00,
2013-01-21 06:34:00,66.5,64.1,29.97,South,184,0.0,0.0,92,0.00,,-RA,0.01,0.00,VWS V14.00,2013-01-21 11:34:00,
2013-01-21 06:39:00,66.3,63.9,29.97,South,184,0.0,0.0,92,0.00,,-RA,0.01,0.00,VWS V14.00,2013-01-21 11:39:00,
2013-01-21 06:44:00,66.2,63.8,29.97,South,184,0.0,0.0,92,0.00,,-RA,0.01,0.00,VWS V14.00,2013-01-21 11:44:00,
2013-01-21 06:49:00,66.2,63.8,29.98,South,184,0.0,0.0,92,0.00,,-RA,0.01,0.00,VWS V14.00,2013-01-21 11:49:00,
2013-01-21 06:54:00,66.2,63.8,29.98,South,184,0.0,0.0,92,0.00,,-RA,0.01,0.00,VWS V14.00,2013-01-21 11:54:00,
2013-01-21 06:59:00,66.2,63.8,29.98,South,184,0.0,0.0,92,0.00,,-RA,0.01,0.00,VWS V14.00,2013-01-21 11:59:00,
2013-01-21 07:04:00,66.3,63.9,29.98,South,184,0.0,0.0,92,0.00,,-RA,0.01,0.00,VWS V14.00,2013-01-21 12:04:00,
2013-01-21 07:09:00,66.1,63.7,29.99,South,184,0.0,0.0,92,0.00,,-RA,0.01,0.00,VWS V14.00,2013-01-21 12:09:00,
2013-01-21 07:14:00,66.1,63.7,29.99,South,184,0.0,0.0,92,0.00,,-RA,0.01,0.00,VWS V14.00,2013-01-21 12:14:00,
2013-01-21 07:19:00,66.1,63.7,29.99,South,184,0.0,0.0,92,0.00,,-RA,0.01,0.00,VWS V14.00,2013-01-21 12:19:00,
2013-01-21 07:24:00,65.8,63.4,29.99,South,184,0.0,0.0,92,0.00,,-RA,0.01,0.00,VWS V14.00,2013-01-21 12:24:00,
2013-01-21 07:29:00,65.8,63.4,29.99,South,184,0.0,0.0,92,0.00,,-RA,0.01,9.00,VWS V14.00,2013-01-21 12:29:00,
2013-01-21 07:34:00,65.9,63.5,29.99,South,184,0.0,0.0,92,0.00,,-RA,0.01,18.00,VWS V14.00,2013-01-21 12:34:00,
2013-01-21 07:39:00,66.0,63.6,29.99,South,184,0.0,0.0,92,0.00,,-RA,0.01,26.00,VWS V14.00,2013-01-21 12:39:00,
2013-01-21 07:44:00,66.1,63.7,30.00,South,184,0.0,0.0,92,0.00,,-RA,0.01,30.00,VWS V14.00,2013-01-21 12:44:00,
2013-01-21 07:49:00,66.4,64.0,30.00,South,184,0.0,0.0,92,0.00,,-RA,0.01,33.00,VWS V14.00,2013-01-21 12:49:00,
2013-01-21 07:55:00,66.6,64.2,30.00,South,184,0.0,0.0,92,0.00,,-RA,0.01,18.00,VWS V14.00,2013-01-21 12:55:00,
2013-01-21 08:00:00,66.9,64.5,30.00,South,184,0.0,0.0,92,0.00,,-RA,0.01,16.00,VWS V14.00,2013-01-21 13:00:00,
2013-01-21 08:05:00,67.1,64.7,30.01,South,184,0.0,0.0,92,0.00,,-RA,0.01,16.00,VWS V14.00,2013-01-21 13:05:00,
2013-01-21 08:10:00,67.2,64.8,30.01,South,184,0.0,0.0,92,0.00,,-RA,0.01,18.00,VWS V14.00,2013-01-21 13:10:00,
2013-01-21 08:15:00,67.4,65.0,30.01,South,184,0.0,0.0,92,0.00,,-RA,0.01,23.00,VWS V14.00,2013-01-21 13:15:00,
2013-01-21 08:20:00,67.7,65.3,30.01,South,184,0.0,0.0,92,0.00,,-RA,0.01,58.00,VWS V14.00,2013-01-21 13:20:00,
2013-01-21 08:25:00,68.2,65.8,30.01,South,184,1.0,2.0,92,0.00,,-RA,0.01,67.00,VWS V14.00,2013-01-21 13:25:00,
2013-01-21 08:30:00,68.7,66.3,30.02,South,188,0.0,0.0,92,0.00,,-RA,0.01,60.00,VWS V14.00,2013-01-21 13:30:00,
2013-01-21 08:35:00,69.0,66.6,30.01,South,187,0.0,0.0,92,0.00,,SCT035,0.01,37.00,VWS V14.00,2013-01-21 13:35:00,
2013-01-21 08:40:00,69.3,66.9,30.01,SSE,153,0.0,0.0,92,0.00,,SCT035,0.01,47.00,VWS V14.00,2013-01-21 13:40:00,
2013-01-21 08:45:00,69.5,67.1,30.02,SSE,153,0.0,0.0,92,0.00,,SCT035,0.01,28.00,VWS V14.00,2013-01-21 13:45:00,
2013-01-21 08:50:00,69.7,67.3,30.01,SSE,153,0.0,0.0,92,0.00,,SCT035,0.01,86.00,VWS V14.00,2013-01-21 13:50:00,
2013-01-21 08:55:00,70.1,67.7,30.01,SSE,153,0.0,0.0,92,0.00,,SCT035,0.01,33.00,VWS V14.00,2013-01-21 13:55:00,
2013-01-21 09:00:00,70.5,68.1,30.01,SSE,153,0.0,0.0,92,0.00,,SCT035,0.01,47.00,VWS V14.00,2013-01-21 14:00:00,
2013-01-21 09:05:00,70.7,68.3,30.02,SSW,197,0.0,0.0,92,0.00,,SCT035,0.01,44.00,VWS V14.00,2013-01-21 14:05:00,
2013-01-21 09:10:00,70.9,68.5,30.02,SSW,197,0.0,0.0,92,0.00,,SCT035,0.01,46.00,VWS V14.00,2013-01-21 14:10:00,
2013-01-21 09:15:00,71.1,68.7,30.02,SSW,197,0.0,0.0,92,0.00,,SCT035,0.01,42.00,VWS V14.00,2013-01-21 14:15:00,
2013-01-21 09:20:00,71.3,68.9,30.01,ESE,123,0.0,2.0,92,0.00,,SCT035,0.01,46.00,VWS V14.00,2013-01-21 14:20:00,
2013-01-21 09:25:00,71.5,69.1,30.02,ESE,123,0.0,0.0,92,0.00,,SCT035,0.01,60.00,VWS V14.00,2013-01-21 14:25:00,
2013-01-21 09:30:00,71.7,69.3,30.02,ESE,120,0.0,0.0,92,0.00,,SCT035,0.01,63.00,VWS V14.00,2013-01-21 14:30:00,
2013-01-21 09:35:00,72.0,69.6,30.01,ESE,121,0.0,2.0,92,0.00,,SCT025,0.01,113.00,VWS V14.00,2013-01-21 14:35:00,
2013-01-21 09:40:00,72.1,69.7,30.01,SE,125,4.0,4.0,92,0.00,,SCT025,0.01,95.00,VWS V14.00,2013-01-21 14:40:00,
2013-01-21 09:45:00,72.4,69.9,30.02,SSE,156,2.0,9.0,92,0.00,,SCT025,0.01,93.00,VWS V14.00,2013-01-21 14:45:00,
2013-01-21 09:50:00,72.7,70.2,30.02,SSE,155,4.0,5.0,92,0.00,,SCT025,0.01,98.00,VWS V14.00,2013-01-21 14:50:00,
2013-01-21 09:55:00,73.1,70.3,30.02,SSE,153,1.0,4.0,91,0.00,,SCT025,0.01,77.00,VWS V14.00,2013-01-21 14:55:00,
2013-01-21 10:00:00,73.4,70.6,30.02,SSE,165,4.0,4.0,91,0.00,,SCT025,0.01,77.00,VWS V14.00,2013-01-21 15:00:00,
2013-01-21 10:05:00,74.0,70.9,30.02,SSE,163,3.0,7.0,90,0.00,,SCT025,0.01,111.00,VWS V14.00,2013-01-21 15:05:00,
2013-01-21 10:10:00,74.5,71.1,30.02,South,173,0.0,4.0,89,0.00,,SCT025,0.01,123.00,VWS V14.00,2013-01-21 15:10:00,
2013-01-21 10:15:00,75.1,71.0,30.02,SSE,155,1.0,6.0,87,0.00,,SCT025,0.01,91.00,VWS V14.00,2013-01-21 15:15:00,
2013-01-21 10:20:00,75.3,70.1,30.02,South,186,6.0,6.0,84,0.00,,SCT025,0.01,105.00,VWS V14.00,2013-01-21 15:20:00,
2013-01-21 10:25:00,75.7,70.2,30.03,South,186,0.0,5.0,83,0.00,,SCT025,0.01,97.00,VWS V14.00,2013-01-21 15:25:00,
2013-01-21 10:30:00,75.9,70.0,30.03,South,184,0.0,1.0,82,0.00,,SCT025,0.01,86.00,VWS V14.00,2013-01-21 15:30:00,
2013-01-21 10:35:00,76.0,69.8,30.02,South,184,0.0,1.0,81,0.00,,SCT040,0.01,135.00,VWS V14.00,2013-01-21 15:35:00,
2013-01-21 10:40:00,76.3,69.7,30.03,South,183,0.0,1.0,80,0.00,,SCT040,0.01,95.00,VWS V14.00,2013-01-21 15:40:00,
2013-01-21 10:45:00,76.4,69.8,30.02,South,182,1.0,5.0,80,0.00,,SCT040,0.01,128.00,VWS V14.00,2013-01-21 15:45:00,
2013-01-21 10:50:00,76.6,69.2,30.02,South,182,6.0,6.0,78,0.00,,SCT040,0.01,102.00,VWS V14.00,2013-01-21 15:50:00,
2013-01-21 10:55:00,76.7,68.9,30.02,South,182,2.0,4.0,77,0.00,,SCT040,0.01,77.00,VWS V14.00,2013-01-21 15:55:00,
2013-01-21 11:00:00,76.8,69.1,30.02,South,182,3.0,4.0,77,0.00,,SCT040,0.01,74.00,VWS V14.00,2013-01-21 16:00:00,
2013-01-21 11:05:00,76.8,68.7,30.02,SSE,166,1.0,6.0,76,0.00,,SCT040,0.01,91.00,VWS V14.00,2013-01-21 16:05:00,
2013-01-21 11:10:00,76.9,68.8,30.02,SSE,165,0.0,5.0,76,0.00,,SCT040,0.01,95.00,VWS V14.00,2013-01-21 16:10:00,
2013-01-21 11:15:00,77.2,69.1,30.01,SSE,166,4.0,4.0,76,0.00,,SCT040,0.01,76.00,VWS V14.00,2013-01-21 16:15:00,
2013-01-21 11:20:00,77.3,68.8,30.01,South,173,0.0,4.0,75,0.00,,SCT040,0.01,70.00,VWS V14.00,2013-01-21 16:20:00,
2013-01-21 11:25:00,77.4,68.9,30.00,South,176,2.0,4.0,75,0.00,,SCT040,0.01,62.00,VWS V14.00,2013-01-21 16:25:00,
2013-01-21 11:30:00,77.1,68.6,30.00,South,180,1.0,5.0,75,0.00,,SCT040,0.01,56.00,VWS V14.00,2013-01-21 16:30:00,
2013-01-21 11:35:00,77.0,68.9,30.00,South,180,4.0,6.0,76,0.00,,BKN035,0.01,118.00,VWS V14.00,2013-01-21 16:35:00,
2013-01-21 11:40:00,76.9,68.4,30.00,South,181,5.0,6.0,75,0.00,,BKN035,0.01,70.00,VWS V14.00,2013-01-21 16:40:00,
2013-01-21 11:45:00,76.9,68.8,30.00,South,181,0.0,1.0,76,0.00,,BKN035,0.01,65.00,VWS V14.00,2013-01-21 16:45:00,
2013-01-21 11:50:00,77.0,68.9,30.00,South,181,0.0,3.0,76,0.00,,BKN035,0.01,60.00,VWS V14.00,2013-01-21 16:50:00,
2013-01-21 11:55:00,77.1,68.6,30.00,South,178,0.0,2.0,75,0.00,,BKN035,0.01,77.00,VWS V14.00,2013-01-21 16:55:00,
2013-01-21 12:00:00,77.1,68.6,30.00,South,178,0.0,5.0,75,0.00,,BKN035,0.01,51.00,VWS V14.00,2013-01-21 17:00:00,
2013-01-21 12:05:00,77.3,69.2,30.00,SSW,205,5.0,7.0,76,0.00,,BKN035,0.01,185.00,VWS V14.00,2013-01-21 17:05:00,
2013-01-21 12:10:00,77.8,69.6,29.99,SSW,205,1.0,1.0,76,0.00,,BKN035,0.01,97.00,VWS V14.00,2013-01-21 17:10:00,
2013-01-21 12:16:00,78.2,70.0,29.99,SSW,199,2.0,6.0,76,0.00,,BKN035,0.01,90.00,VWS V14.00,2013-01-21 17:16:00,
2013-01-21 12:21:00,78.2,69.6,29.98,South,184,2.0,6.0,75,0.00,,BKN035,0.01,72.00,VWS V14.00,2013-01-21 17:21:00,
2013-01-21 12:26:00,78.1,69.5,29.98,South,183,1.0,4.0,75,0.00,,BKN035,0.01,97.00,VWS V14.00,2013-01-21 17:26:00,
2013-01-21 12:31:00,78.0,69.4,29.98,South,179,0.0,6.0,75,0.00,,BKN035,0.01,132.00,VWS V14.00,2013-01-21 17:31:00,
2013-01-21 12:36:00,77.8,69.2,29.97,South,173,1.0,6.0,75,0.00,,BKN035,0.01,46.00,VWS V14.00,2013-01-21 17:36:00,
2013-01-21 12:41:00,77.4,69.2,29.97,South,171,4.0,5.0,76,0.00,,BKN035,0.01,51.00,VWS V14.00,2013-01-21 17:41:00,
2013-01-21 12:46:00,77.2,69.1,29.97,South,172,0.0,1.0,76,0.00,,BKN035,0.01,141.00,VWS V14.00,2013-01-21 17:46:00,
2013-01-21 12:51:00,77.6,69.4,29.96,South,172,3.0,4.0,76,0.00,,BKN035,0.01,69.00,VWS V14.00,2013-01-21 17:51:00,
2013-01-21 12:56:00,78.0,69.4,29.96,SSE,165,3.0,5.0,75,0.00,,BKN035,0.01,139.00,VWS V14.00,2013-01-21 17:56:00,
2013-01-21 13:01:00,78.1,69.5,29.96,SSE,165,0.0,4.0,75,0.00,,BKN035,0.01,91.00,VWS V14.00,2013-01-21 18:01:00,
2013-01-21 13:06:00,78.3,69.7,29.96,South,186,3.0,5.0,75,0.00,,BKN035,0.01,172.00,VWS V14.00,2013-01-21 18:06:00,
2013-01-21 13:11:00,78.7,69.7,29.96,South,191,7.0,7.0,74,0.00,,BKN035,0.01,76.00,VWS V14.00,2013-01-21 18:11:00,
2013-01-21 13:16:00,78.5,69.5,29.95,SSW,205,2.0,6.0,74,0.00,,BKN035,0.01,83.00,VWS V14.00,2013-01-21 18:16:00,
2013-01-21 13:21:00,78.4,69.8,29.95,South,178,6.0,13.0,75,0.00,,BKN035,0.01,163.00,VWS V14.00,2013-01-21 18:21:00,
2013-01-21 13:26:00,78.1,69.1,29.95,South,182,5.0,7.0,74,0.00,,BKN035,0.01,153.00,VWS V14.00,2013-01-21 18:26:00,
2013-01-21 13:31:00,78.2,70.0,29.94,SSE,166,7.0,7.0,76,0.00,,BKN035,0.01,142.00,VWS V14.00,2013-01-21 18:31:00,
2013-01-21 13:36:00,78.2,70.4,29.94,South,171,7.0,9.0,77,0.00,,BKN030,0.01,146.00,VWS V14.00,2013-01-21 18:36:00,
2013-01-21 13:41:00,78.2,70.4,29.94,SSE,168,4.0,10.0,77,0.00,,BKN030,0.01,144.00,VWS V14.00,2013-01-21 18:41:00,
2013-01-21 13:46:00,78.4,70.2,29.94,SSE,163,3.0,11.0,76,0.00,,BKN030,0.01,79.00,VWS V14.00,2013-01-21 18:46:00,
2013-01-21 13:51:00,78.7,70.1,29.94,SSE,162,6.0,11.0,75,0.00,,BKN030,0.01,139.00,VWS V14.00,2013-01-21 18:51:00,
2013-01-21 13:56:00,78.3,69.7,29.94,South,180,5.0,9.0,75,0.00,,BKN030,0.01,62.00,VWS V14.00,2013-01-21 18:56:00,
2013-01-21 14:01:00,78.1,70.3,29.94,South,176,1.0,5.0,77,0.00,,BKN030,0.01,63.00,VWS V14.00,2013-01-21 19:01:00,
2013-01-21 14:06:00,77.8,70.4,29.94,SSE,167,4.0,9.0,78,0.00,,BKN030,0.01,97.00,VWS V14.00,2013-01-21 19:06:00,
2013-01-21 14:11:00,77.8,70.4,29.93,South,178,8.0,9.0,78,0.00,,BKN030,0.01,83.00,VWS V14.00,2013-01-21 19:11:00,
2013-01-21 14:16:00,77.7,69.9,29.93,South,169,4.0,5.0,77,0.00,,BKN030,0.01,62.00,VWS V14.00,2013-01-21 19:16:00,
2013-01-21 14:21:00,77.7,69.9,29.92,South,170,0.0,1.0,77,0.00,,BKN030,0.01,93.00,VWS V14.00,2013-01-21 19:21:00,
2013-01-21 14:26:00,77.9,69.3,29.92,South,180,1.0,6.0,75,0.00,,BKN030,0.01,63.00,VWS V14.00,2013-01-21 19:26:00,
2013-01-21 14:31:00,78.2,69.6,29.92,South,180,0.0,1.0,75,0.00,,BKN030,0.01,121.00,VWS V14.00,2013-01-21 19:31:00,
2013-01-21 14:36:00,78.6,70.0,29.92,South,175,3.0,6.0,75,0.00,,BKN025,0.01,86.00,VWS V14.00,2013-01-21 19:36:00,
2013-01-21 14:41:00,78.6,69.6,29.92,South,188,3.0,5.0,74,0.00,,BKN025,0.01,67.00,VWS V14.00,2013-01-21 19:41:00,
2013-01-21 14:46:00,78.2,70.0,29.92,South,179,0.0,5.0,76,0.00,,BKN025,0.01,60.00,VWS V14.00,2013-01-21 19:46:00,
2013-01-21 14:51:00,77.8,69.2,29.92,South,170,5.0,6.0,75,0.00,,BKN025,0.01,49.00,VWS V14.00,2013-01-21 19:51:00,
2013-01-21 14:56:00,77.4,69.6,29.92,SSE,163,0.0,4.0,77,0.00,,BKN025,0.01,47.00,VWS V14.00,2013-01-21 19:56:00,
2013-01-21 15:01:00,77.3,69.9,29.92,SSE,164,0.0,3.0,78,0.00,,BKN025,0.01,49.00,VWS V14.00,2013-01-21 20:01:00,
2013-01-21 15:06:00,77.4,70.0,29.92,South,174,3.0,6.0,78,0.00,,BKN025,0.01,63.00,VWS V14.00,2013-01-21 20:06:00,
2013-01-21 15:11:00,77.4,70.4,29.92,South,173,7.0,8.0,79,0.00,,BKN025,0.01,72.00,VWS V14.00,2013-01-21 20:11:00,
2013-01-21 15:16:00,77.4,70.8,29.92,South,184,5.0,5.0,80,0.00,,BKN025,0.01,79.00,VWS V14.00,2013-01-21 20:16:00,
2013-01-21 15:21:00,77.4,70.4,29.92,South,180,1.0,6.0,79,0.00,,BKN025,0.01,56.00,VWS V14.00,2013-01-21 20:21:00,
2013-01-21 15:26:00,77.3,70.3,29.92,South,182,3.0,4.0,79,0.00,,BKN025,0.01,49.00,VWS V14.00,2013-01-21 20:26:00,
2013-01-21 15:31:00,77.1,70.5,29.92,South,183,0.0,2.0,80,0.00,,BKN025,0.01,47.00,VWS V14.00,2013-01-21 20:31:00,
2013-01-21 15:36:00,77.0,70.4,29.92,South,182,2.0,2.0,80,0.00,,BKN025,0.01,56.00,VWS V14.00,2013-01-21 20:36:00,
2013-01-21 15:41:00,77.1,70.5,29.92,South,188,4.0,9.0,80,0.00,,BKN025,0.01,74.00,VWS V14.00,2013-01-21 20:41:00,
2013-01-21 15:46:00,77.0,70.4,29.92,South,188,0.0,0.0,80,0.00,,BKN025,0.01,39.00,VWS V14.00,2013-01-21 20:46:00,
2013-01-21 15:51:00,76.9,70.3,29.92,South,188,2.0,5.0,80,0.00,,BKN025,0.01,46.00,VWS V14.00,2013-01-21 20:51:00,
2013-01-21 15:56:00,76.8,70.5,29.92,South,186,0.0,7.0,81,0.00,,BKN025,0.01,49.00,VWS V14.00,2013-01-21 20:56:00,
2013-01-21 16:01:00,76.7,70.4,29.92,South,186,0.0,5.0,81,0.00,,BKN025,0.01,37.00,VWS V14.00,2013-01-21 21:01:00,
2013-01-21 16:06:00,76.6,70.3,29.92,South,186,4.0,6.0,81,0.00,,BKN025,0.01,33.00,VWS V14.00,2013-01-21 21:06:00,
2013-01-21 16:12:00,76.5,70.6,29.92,South,186,0.0,4.0,82,0.00,,BKN025,0.01,35.00,VWS V14.00,2013-01-21 21:12:00,
2013-01-21 16:17:00,76.5,70.2,29.92,SSW,194,3.0,6.0,81,0.00,,BKN025,0.01,35.00,VWS V14.00,2013-01-21 21:17:00,
2013-01-21 16:22:00,76.5,70.2,29.92,South,191,2.0,2.0,81,0.00,,BKN025,0.01,42.00,VWS V14.00,2013-01-21 21:22:00,
2013-01-21 16:27:00,76.5,69.9,29.92,SSW,192,0.0,5.0,80,0.00,,BKN025,0.01,44.00,VWS V14.00,2013-01-21 21:27:00,
2013-01-21 16:32:00,76.5,69.9,29.92,SSW,200,3.0,6.0,80,0.00,,BKN025,0.01,35.00,VWS V14.00,2013-01-21 21:32:00,
2013-01-21 16:37:00,76.5,69.9,29.92,SSW,200,2.0,3.0,80,0.00,,BKN025,0.01,28.00,VWS V14.00,2013-01-21 21:37:00,
2013-01-21 16:42:00,76.5,69.9,29.92,SSW,200,0.0,0.0,80,0.00,,BKN025,0.01,23.00,VWS V14.00,2013-01-21 21:42:00,
2013-01-21 16:47:00,76.5,69.9,29.92,SSW,200,0.0,3.0,80,0.00,,BKN025,0.01,26.00,VWS V14.00,2013-01-21 21:47:00,
2013-01-21 16:52:00,76.6,70.0,29.92,SSW,200,0.0,1.0,80,0.00,,BKN025,0.01,39.00,VWS V14.00,2013-01-21 21:52:00,
2013-01-21 16:57:00,76.7,70.1,29.92,SSW,200,5.0,5.0,80,0.00,,BKN025,0.01,40.00,VWS V14.00,2013-01-21 21:57:00,
2013-01-21 17:02:00,76.7,70.1,29.92,SSW,200,0.0,4.0,80,0.00,,BKN025,0.01,49.00,VWS V14.00,2013-01-21 22:02:00,
2013-01-21 17:07:00,76.8,69.8,29.92,SSW,200,0.0,3.0,79,0.00,,BKN025,0.01,26.00,VWS V14.00,2013-01-21 22:07:00,
2013-01-21 17:12:00,76.8,69.8,29.92,SSW,200,3.0,5.0,79,0.00,,BKN025,0.01,16.00,VWS V14.00,2013-01-21 22:12:00,
2013-01-21 17:17:00,76.7,70.1,29.92,SSW,200,0.0,1.0,80,0.00,,BKN025,0.01,12.00,VWS V14.00,2013-01-21 22:17:00,
2013-01-21 17:22:00,76.5,69.9,29.92,SSW,200,0.0,1.0,80,0.00,,BKN025,0.01,7.00,VWS V14.00,2013-01-21 22:22:00,
2013-01-21 17:27:00,76.2,69.6,29.92,SSW,200,0.0,0.0,80,0.00,,BKN025,0.01,5.00,VWS V14.00,2013-01-21 22:27:00,
2013-01-21 17:32:00,76.1,69.8,29.92,SSW,200,0.0,0.0,81,0.00,,BKN025,0.01,0.00,VWS V14.00,2013-01-21 22:32:00,
2013-01-21 17:37:00,76.0,69.8,29.92,SSW,200,0.0,0.0,81,0.00,,BKN025,0.01,0.00,VWS V14.00,2013-01-21 22:37:00,
2013-01-21 17:42:00,75.9,69.7,29.93,SSW,200,0.0,0.0,81,0.00,,BKN025,0.01,0.00,VWS V14.00,2013-01-21 22:42:00,
2013-01-21 17:47:00,75.8,69.6,29.93,SSW,200,0.0,0.0,81,0.00,,BKN025,0.01,0.00,VWS V14.00,2013-01-21 22:47:00,
2013-01-21 17:52:00,75.7,69.8,29.93,SSW,200,0.0,0.0,82,0.00,,BKN025,0.01,0.00,VWS V14.00,2013-01-21 22:52:00,
2013-01-21 17:57:00,75.6,69.7,29.93,SSW,200,0.0,0.0,82,0.00,,BKN025,0.01,0.00,VWS V14.00,2013-01-21 22:57:00,
2013-01-21 18:02:00,75.6,69.7,29.93,SSW,200,0.0,0.0,82,0.00,,BKN025,0.01,0.00,VWS V14.00,2013-01-21 23:02:00,
2013-01-21 18:07:00,75.5,69.3,29.93,SSW,200,0.0,0.0,81,0.00,,BKN025,0.01,0.00,VWS V14.00,2013-01-21 23:07:00,
2013-01-21 18:12:00,75.4,69.2,29.93,SSW,200,3.0,4.0,81,0.00,,BKN025,0.01,0.00,VWS V14.00,2013-01-21 23:12:00,
2013-01-21 18:17:00,75.4,68.8,29.94,SSW,207,0.0,5.0,80,0.00,,BKN025,0.01,0.00,VWS V14.00,2013-01-21 23:17:00,
2013-01-21 18:22:00,75.3,68.3,29.94,SW,235,1.0,5.0,79,0.00,,BKN025,0.01,0.00,VWS V14.00,2013-01-21 23:22:00,
2013-01-21 18:27:00,75.2,67.9,29.94,WSW,240,2.0,4.0,78,0.00,,BKN025,0.01,0.00,VWS V14.00,2013-01-21 23:27:00,
2013-01-21 18:32:00,75.1,67.8,29.94,North,351,9.0,11.0,78,0.00,,SCT030CU,0.01,0.00,VWS V14.00,2013-01-21 23:32:00,
2013-01-21 18:37:00,74.4,67.8,29.94,North,5,5.0,13.0,80,0.00,,SCT030CU,0.01,0.00,VWS V14.00,2013-01-21 23:37:00,
2013-01-21 18:42:00,73.5,67.7,29.95,North,349,6.0,10.0,82,0.00,,SCT030CU,0.01,0.00,VWS V14.00,2013-01-21 23:42:00,
2013-01-21 18:47:00,73.0,67.5,29.95,NNW,346,4.0,7.0,83,0.00,,SCT030CU,0.01,0.00,VWS V14.00,2013-01-21 23:47:00,
2013-01-21 18:52:00,72.6,67.5,29.95,North,355,4.0,9.0,84,0.00,,SCT030CU,0.01,0.00,VWS V14.00,2013-01-21 23:52:00,
2013-01-21 18:57:00,72.4,67.3,29.95,North,355,2.0,6.0,84,0.00,,SCT030CU,0.01,0.00,VWS V14.00,2013-01-21 23:57:00,
2013-01-21 19:02:00,72.2,67.4,29.95,North,5,5.0,8.0,85,0.00,,SCT030CU,0.01,0.00,VWS V14.00,2013-01-22 00:02:00,
2013-01-21 19:07:00,72.1,67.3,29.95,North,5,6.0,6.0,85,0.00,,-RA,0.01,0.00,VWS V14.00,2013-01-22 00:07:00,
2013-01-21 19:12:00,72.0,67.2,29.96,North,9,7.0,7.0,85,0.00,,-RA,0.01,0.00,VWS V14.00,2013-01-22 00:12:00,
2013-01-21 19:17:00,71.8,67.1,29.96,NNE,16,7.0,7.0,85,0.00,,-RA,0.01,0.00,VWS V14.00,2013-01-22 00:17:00,
2013-01-21 19:22:00,71.7,67.3,29.96,North,10,1.0,9.0,86,0.00,,-RA,0.01,0.00,VWS V14.00,2013-01-22 00:22:00,
2013-01-21 19:27:00,71.7,67.3,29.97,North,5,0.0,5.0,86,0.00,,-RA,0.01,0.00,VWS V14.00,2013-01-22 00:27:00,
2013-01-21 19:32:00,71.5,67.1,29.96,North,9,0.0,5.0,86,0.00,,-RA,0.01,0.00,VWS V14.00,2013-01-22 00:32:00,
2013-01-21 19:37:00,71.5,66.8,29.97,North,360,4.0,4.0,85,0.00,,-RA,0.01,0.00,VWS V14.00,2013-01-22 00:37:00,
2013-01-21 19:42:00,71.3,66.2,29.97,North,355,0.0,6.0,84,0.00,,-RA,0.01,0.00,VWS V14.00,2013-01-22 00:42:00,
2013-01-21 19:47:00,71.2,65.8,29.97,NNW,342,5.0,6.0,83,0.00,,-RA,0.01,0.00,VWS V14.00,2013-01-22 00:47:00,
2013-01-21 19:52:00,71.2,65.4,29.97,North,355,4.0,5.0,82,0.00,,-RA,0.01,0.00,VWS V14.00,2013-01-22 00:52:00,
2013-01-21 19:57:00,71.2,65.4,29.97,NNW,330,10.0,12.0,82,0.00,,-RA,0.01,0.00,VWS V14.00,2013-01-22 00:57:00,
2013-01-21 20:02:00,71.1,65.3,29.96,North,355,7.0,7.0,82,0.00,,-RA,0.01,0.00,VWS V14.00,2013-01-22 01:02:00,
2013-01-21 20:07:00,71.0,65.2,29.96,North,355,4.0,4.0,82,0.00,,-RA,0.01,0.00,VWS V14.00,2013-01-22 01:07:00,
2013-01-21 20:12:00,70.9,65.1,29.96,North,355,4.0,4.0,82,0.00,,-RA,0.01,0.00,VWS V14.00,2013-01-22 01:12:00,
2013-01-21 20:17:00,70.7,65.3,29.97,North,355,3.0,4.0,83,0.00,,-RA,0.01,0.00,VWS V14.00,2013-01-22 01:17:00,
2013-01-21 20:22:00,70.6,65.2,29.96,North,350,0.0,3.0,83,0.00,,-RA,0.01,0.00,VWS V14.00,2013-01-22 01:22:00,
2013-01-21 20:27:00,70.4,65.0,29.97,North,350,0.0,2.0,83,0.00,,-RA,0.01,0.00,VWS V14.00,2013-01-22 01:27:00,
2013-01-21 20:32:00,70.3,65.2,29.97,North,350,0.0,4.0,84,0.00,,BKN035CU,0.01,0.00,VWS V14.00,2013-01-22 01:32:00,
2013-01-21 20:37:00,70.2,65.1,29.97,North,350,0.0,3.0,84,0.00,,BKN035CU,0.01,0.00,VWS V14.00,2013-01-22 01:37:00,
2013-01-21 20:42:00,70.1,65.4,29.97,North,350,2.0,4.0,85,0.00,,BKN035CU,0.01,0.00,VWS V14.00,2013-01-22 01:42:00,
2013-01-21 20:47:00,70.0,65.3,29.97,NNW,348,0.0,2.0,85,0.00,,BKN035CU,0.01,0.00,VWS V14.00,2013-01-22 01:47:00,
2013-01-21 20:52:00,69.9,65.2,29.97,NW,316,2.0,7.0,85,0.00,,BKN035CU,0.01,0.00,VWS V14.00,2013-01-22 01:52:00,
2013-01-21 20:58:00,69.8,65.4,29.97,NW,315,2.0,4.0,86,0.00,,BKN035CU,0.01,0.00,VWS V14.00,2013-01-22 01:58:00,
2013-01-21 21:03:00,69.7,65.3,29.98,NW,313,0.0,0.0,86,0.00,,BKN035CU,0.01,0.00,VWS V14.00,2013-01-22 02:03:00,
2013-01-21 21:08:00,69.7,65.7,29.98,NW,319,1.0,1.0,87,0.00,,BKN035CU,0.01,0.00,VWS V14.00,2013-01-22 02:08:00,
2013-01-21 21:13:00,69.6,65.6,29.98,NW,319,2.0,6.0,87,0.00,,BKN035CU,0.01,0.00,VWS V14.00,2013-01-22 02:13:00,
2013-01-21 21:18:00,69.5,65.8,29.98,NW,307,2.0,3.0,88,0.00,,BKN035CU,0.01,0.00,VWS V14.00,2013-01-22 02:18:00,
2013-01-21 21:23:00,69.4,65.7,29.98,NW,306,3.0,3.0,88,0.00,,BKN035CU,0.01,0.00,VWS V14.00,2013-01-22 02:23:00,
2013-01-21 21:28:00,69.2,65.5,29.98,NW,317,3.0,3.0,88,0.00,,BKN035CU,0.01,0.00,VWS V14.00,2013-01-22 02:28:00,
2013-01-21 21:33:00,69.1,65.4,29.97,NNW,338,4.0,10.0,88,0.00,,BKN035CU,0.01,0.00,VWS V14.00,2013-01-22 02:33:00,
2013-01-21 21:38:00,68.9,65.5,29.98,NNW,337,6.0,7.0,89,0.00,,BKN035CU,0.01,0.00,VWS V14.00,2013-01-22 02:38:00,
2013-01-21 21:43:00,68.8,65.4,29.98,NNW,338,0.0,5.0,89,0.00,,BKN035CU,0.01,0.00,VWS V14.00,2013-01-22 02:43:00,
2013-01-21 21:48:00,68.6,65.2,29.98,NNW,342,1.0,5.0,89,0.00,,BKN035CU,0.01,0.00,VWS V14.00,2013-01-22 02:48:00,
2013-01-21 21:53:00,68.4,65.0,29.98,NNW,344,3.0,6.0,89,0.00,,BKN035CU,0.01,0.00,VWS V14.00,2013-01-22 02:53:00,
2013-01-21 21:58:00,68.3,64.9,29.98,NNW,344,0.0,1.0,89,0.00,,BKN035CU,0.01,0.00,VWS V14.00,2013-01-22 02:58:00,
2013-01-21 22:03:00,68.1,64.7,29.98,NNW,344,0.0,3.0,89,0.00,,BKN035CU,0.01,0.00,VWS V14.00,2013-01-22 03:03:00,
2013-01-21 22:08:00,68.0,64.6,29.98,NNW,344,2.0,4.0,89,0.00,,BKN035CU,0.01,0.00,VWS V14.00,2013-01-22 03:08:00,
2013-01-21 22:13:00,67.9,64.5,29.98,NNW,344,3.0,3.0,89,0.00,,BKN035CU,0.01,0.00,VWS V14.00,2013-01-22 03:13:00,
2013-01-21 22:18:00,67.9,64.9,29.98,NNW,343,1.0,6.0,90,0.00,,BKN035CU,0.01,0.00,VWS V14.00,2013-01-22 03:18:00,
2013-01-21 22:23:00,67.8,64.8,29.98,NNW,343,2.0,2.0,90,0.00,,BKN035CU,0.01,0.00,VWS V14.00,2013-01-22 03:23:00,
2013-01-21 22:28:00,67.7,64.7,29.98,NNW,343,0.0,2.0,90,0.00,,BKN035CU,0.01,0.00,VWS V14.00,2013-01-22 03:28:00,
2013-01-21 22:33:00,67.6,64.6,29.98,NNW,343,0.0,4.0,90,0.00,,SCT055,0.01,0.00,VWS V14.00,2013-01-22 03:33:00,
2013-01-21 22:38:00,67.5,64.5,29.99,NNW,344,0.0,3.0,90,0.00,,SCT055,0.01,0.00,VWS V14.00,2013-01-22 03:38:00,
2013-01-21 22:43:00,67.5,64.5,29.99,NNW,344,0.0,0.0,90,0.00,,SCT055,0.01,0.00,VWS V14.00,2013-01-22 03:43:00,
2013-01-21 22:48:00,67.4,64.4,29.99,NNW,344,0.0,4.0,90,0.00,,SCT055,0.01,0.00,VWS V14.00,2013-01-22 03:48:00,
2013-01-21 22:53:00,67.3,64.3,29.99,NNW,344,0.0,4.0,90,0.00,,SCT055,0.01,0.00,VWS V14.00,2013-01-22 03:53:00,
2013-01-21 22:58:00,67.2,64.5,29.99,NNW,346,4.0,5.0,91,0.00,,SCT055,0.01,0.00,VWS V14.00,2013-01-22 03:58:00,
2013-01-21 23:03:00,67.1,64.4,29.99,NNW,346,1.0,5.0,91,0.00,,SCT055,0.01,0.00,VWS V14.00,2013-01-22 04:03:00,
2013-01-21 23:08:00,67.0,64.3,29.99,NNW,336,4.0,9.0,91,0.00,,SCT055,0.01,0.00,VWS V14.00,2013-01-22 04:08:00,
2013-01-21 23:13:00,67.0,64.3,29.99,NNW,336,0.0,4.0,91,0.00,,SCT055,0.01,0.00,VWS V14.00,2013-01-22 04:13:00,
2013-01-21 23:18:00,66.9,64.2,29.98,NNW,336,0.0,2.0,91,0.00,,SCT055,0.01,0.00,VWS V14.00,2013-01-22 04:18:00,
2013-01-21 23:23:00,66.8,64.1,29.99,NNW,336,2.0,3.0,91,0.00,,SCT055,0.01,0.00,VWS V14.00,2013-01-22 04:23:00,
2013-01-21 23:28:00,66.8,64.1,29.99,NNW,336,0.0,2.0,91,0.00,,SCT055,0.01,0.00,VWS V14.00,2013-01-22 04:28:00,
2013-01-21 23:33:00,66.6,63.9,29.99,NNW,336,0.0,0.0,91,0.00,,SCT055,0.01,0.00,VWS V14.00,2013-01-22 04:33:00,
2013-01-21 23:38:00,66.6,63.9,29.99,NNW,336,0.0,0.0,91,0.00,,SCT055,0.01,0.00,VWS V14.00,2013-01-22 04:38:00,
2013-01-21 23:43:00,66.5,63.8,29.99,NNW,336,0.0,0.0,91,0.00,,SCT055,0.01,0.00,VWS V14.00,2013-01-22 04:43:00,
2013-01-21 23:48:00,66.5,63.8,29.99,NNW,336,0.0,1.0,91,0.00,,SCT055,0.01,0.00,VWS V14.00,2013-01-22 04:48:00,
2013-01-21 23:53:00,66.4,63.7,29.99,NNW,336,0.0,2.0,91,0.00,,SCT055,0.01,0.00,VWS V14.00,2013-01-22 04:53:00,
2013-01-21 23:58:00,66.4,63.7,29.98,NNW,336,0.0,1.0,91,0.00,,SCT055,0.01,0.00,VWS V14.00,2013-01-22 04:58:00,